Weather History for KSZL - March, 2014

Change the Weather History Date:

Saturday, March 29, 2014

  Actual Average Record
Temperature  
Mean Temperature 42 °F -  
Max Temperature 55 °F 59 °F 78 °F (2005)
Min Temperature 30 °F 38 °F 29 °F (2009)
Degree Days  
Heating Degree Days 22    
Moisture  
Dew Point 28 °F    
Average Humidity 58    
Maximum Humidity 88    
Minimum Humidity 33    
Precipitation  
Precipitation 0.00 in - - ()
Sea Level Pressure  
Sea Level Pressure 30.23 in    
Wind  
Wind Speed 7 mph (North)    
Max Wind Speed 13 mph    
Max Gust Speed -    
Visibility 6 miles    
Events      
Averages and records for this station are not official NWS values.
T = Trace of Precipitation, MM = Missing Value Source: NWS Daily Summary

Daily Weather History Graph

Daily Weather History Graph

Search for Another Location

Airport or City:

Trip Planner

Search our weather history database for the weather conditions in past years. The results will help you decide how hot, cold, wet, or windy it might be!

Date:

Astronomy

Mar. 29, 2014 Rise Set
Actual Time 7:03 AM CDT 7:34 PM CDT
Civil Twilight 6:36 AM CDT 8:01 PM CDT
Nautical Twilight 6:05 AM CDT 8:33 PM CDT
Astronomical Twilight 5:33 AM CDT 9:05 PM CDT
Moon 6:11 AM CDT (3/29) 6:41 PM CDT (3/29)
Length of Visible Light 13h 24m
Length of Day
12h 31m
Waning Crescent, 2% of the Moon is Illuminated
Mar 29
Waning Crescent
Mar 30
New
Apr 7
First Quarter
Apr 15
Full
Apr 22
Last Quarter

Hourly Weather History & Observations

Time (CDT) Temp. Windchill Dew Point Humidity Pressure Visibility Wind Dir Wind Speed Gust Speed Precip Events Conditions
12:58 AM 35.6 °F 28.0 °F 30.9 °F 83% 30.18 in 10.0 mi North 10.4 mph - N/A   Clear
1:58 AM 34.0 °F 26.0 °F 29.8 °F 85% 30.21 in 10.0 mi North 10.4 mph - N/A   Clear
2:13 AM 35.6 °F 29.2 °F 32.0 °F 87% 30.18 in 10.0 mi North 8.1 mph - N/A   Mostly Cloudy
2:58 AM 36.0 °F 29.0 °F 31.3 °F 83% 30.21 in 10.0 mi NNE 9.2 mph - N/A   Overcast
3:58 AM 32.7 °F 25.7 °F 28.8 °F 85% 30.21 in 10.0 mi North 8.1 mph - N/A   Mostly Cloudy
4:03 AM 32.0 °F 24.8 °F 28.4 °F 87% 30.18 in 10.0 mi North 8.1 mph - N/A   Scattered Clouds
4:08 AM 32.0 °F 25.6 °F 28.4 °F 87% 30.18 in 10.0 mi North 6.9 mph - N/A   Partly Cloudy
4:18 AM 32.0 °F 26.4 °F 28.4 °F 87% 30.19 in 9.0 mi North 5.8 mph - N/A   Clear
4:28 AM 32.0 °F 25.6 °F 28.4 °F 87% 30.18 in 10.0 mi North 6.9 mph - N/A   Clear
4:58 AM 32.7 °F 27.3 °F 28.9 °F 86% 30.22 in 10.0 mi NNW 5.8 mph - N/A   Clear
5:58 AM 31.3 °F 24.7 °F 27.9 °F 87% 30.23 in 10.0 mi NW 6.9 mph - N/A   Clear
6:18 AM 32.0 °F 26.4 °F 28.4 °F 87% 30.20 in 9.0 mi NNW 5.8 mph - N/A   Clear
6:48 AM 32.0 °F 24.8 °F 26.6 °F 80% 30.22 in 10.0 mi NNW 8.1 mph - N/A   Clear
6:58 AM 30.7 °F 23.3 °F 27.3 °F 87% 30.25 in 8.0 mi NNW 8.1 mph - N/A   Clear
7:58 AM 31.8 °F 24.6 °F 28.6 °F 88% 30.28 in 7.0 mi NNW 8.1 mph - N/A   Clear
8:58 AM 35.2 °F 27.1 °F 30.6 °F 83% 30.29 in 8.0 mi North 11.5 mph - N/A   Clear
9:43 AM 37.4 °F 29.3 °F 30.2 °F 75% 30.27 in 10.0 mi North 12.7 mph - N/A   Mostly Cloudy
9:58 AM 37.6 °F 29.6 °F 29.1 °F 72% 30.30 in 10.0 mi North 12.7 mph - N/A   Overcast
10:03 AM 37.4 °F 29.3 °F 28.4 °F 70% 30.27 in 10.0 mi North 12.7 mph - N/A   Overcast
10:18 AM 39.2 °F 32.5 °F 28.4 °F 65% 30.28 in 10.0 mi North 10.4 mph - N/A   Scattered Clouds
10:48 AM 41.0 °F 36.4 °F 26.6 °F 57% 30.29 in 10.0 mi North 6.9 mph - N/A   Mostly Cloudy
10:58 AM 41.9 °F 35.9 °F 26.6 °F 55% 30.32 in 10.0 mi NW 10.4 mph - N/A   Mostly Cloudy
11:03 AM 42.8 °F 37.5 °F 26.6 °F 53% 30.30 in 10.0 mi North 9.2 mph - N/A   Scattered Clouds
11:58 AM 44.8 °F 40.4 °F 27.1 °F 50% 30.32 in 10.0 mi North 8.1 mph - N/A   Clear
12:58 PM 47.5 °F - 26.6 °F 44% 30.30 in 10.0 mi North 8.1 mph - N/A   Clear
1:58 PM 50.2 °F - 26.6 °F 40% 30.27 in 10.0 mi Variable 3.5 mph - N/A   Clear
2:58 PM 52.7 °F - 26.4 °F 36% 30.26 in 10.0 mi WNW 10.4 mph - N/A   Clear
3:58 PM 54.0 °F - 27.0 °F 35% 30.25 in 6.0 mi Variable 5.8 mph - N/A   Haze
4:58 PM 54.9 °F - 26.4 °F 33% 30.23 in 10.0 mi North 6.9 mph - N/A   Clear
5:43 PM 53.6 °F - 26.6 °F 35% 30.22 in 2.5 mi Calm Calm - N/A   Haze
5:48 PM 55.4 °F - 26.6 °F 33% 30.21 in 1.5 mi Calm Calm - N/A   Haze
5:58 PM 54.5 °F - 26.4 °F 34% 30.23 in 1.0 mi Variable 2.3 mph - N/A   Haze
6:03 PM 55.4 °F - 26.6 °F 33% 30.21 in 1.0 mi Calm Calm - N/A   Haze
6:08 PM 53.6 °F - 26.6 °F 35% 30.21 in 1.0 mi Calm Calm - N/A   Haze
6:18 PM 53.6 °F - 26.6 °F 35% 30.21 in 1.0 mi Variable 1.2 mph - N/A   Haze
6:23 PM 53.6 °F - 26.6 °F 35% 30.21 in 1.0 mi Variable 1.2 mph - N/A   Haze
6:33 PM 53.6 °F - 26.6 °F 35% 30.21 in 1.0 mi West 2.3 mph - N/A   Haze
6:48 PM 53.6 °F - 26.6 °F 35% 30.21 in 1.0 mi NNE 3.5 mph - N/A   Haze
6:53 PM 53.6 °F - 26.6 °F 35% 30.21 in 1.5 mi NNE 3.5 mph - N/A   Haze
6:58 PM 53.6 °F - 26.6 °F 35% 30.23 in 1.8 mi NE 3.5 mph - N/A   Haze
7:03 PM 53.6 °F - 26.6 °F 35% 30.21 in 1.8 mi NE 2.3 mph - N/A   Haze
7:58 PM 48.0 °F - 27.3 °F 45% 30.24 in 2.0 mi South 2.3 mph - N/A   Haze
8:03 PM 48.2 °F - 26.6 °F 43% 30.21 in 2.5 mi South 3.5 mph - N/A   Haze
8:18 PM 44.6 °F 43.1 °F 28.4 °F 53% 30.21 in 3.0 mi SSE 3.5 mph - N/A   Haze
8:23 PM 44.6 °F 43.1 °F 28.4 °F 53% 30.21 in 2.5 mi South 3.5 mph - N/A   Haze
8:58 PM 44.1 °F 42.5 °F 27.5 °F 52% 30.25 in 2.5 mi SSE 3.5 mph - N/A   Haze
9:23 PM 42.8 °F 41.1 °F 26.6 °F 53% 30.22 in 3.0 mi SE 3.5 mph - N/A   Haze
9:33 PM 42.8 °F - 26.6 °F 53% 30.22 in 2.5 mi SSE 2.3 mph - N/A   Haze
9:38 PM 42.8 °F - 26.6 °F 53% 30.23 in 1.8 mi Calm Calm - N/A   Haze
9:53 PM 44.6 °F 43.1 °F 26.6 °F 49% 30.23 in 2.0 mi SSW 3.5 mph - N/A   Haze
9:58 PM 44.2 °F - 27.0 °F 51% 30.26 in 2.0 mi SSW 2.3 mph - N/A   Haze
10:58 PM 40.5 °F - 26.8 °F 58% 30.25 in 2.0 mi Calm Calm - N/A   Haze
11:58 PM 38.7 °F 36.3 °F 26.6 °F 62% 30.25 in 2.0 mi SSE 3.5 mph - N/A   Haze